This is the latest recevied weather packets stored in our database for station/object N9DMT-13. If no packets are shown the sender has not sent any weather packets the latest 10 day(s).
| Time | Temp. | Humidity | Pressure | Rain* | Wind** | Luminosity | Snow |
|---|---|---|---|---|---|---|---|
| 1778253570 | 16.67° C | 34% | 977.7 hPa | 0 mm | - | - | - |
| 1778253269 | 16.11° C | 36% | 977.7 hPa | 0 mm | - | - | - |
| 1778252969 | 16.11° C | 37% | 977.8 hPa | 0 mm | - | - | - |
| 1778252668 | 15.56° C | 35% | 977.7 hPa | 0 mm | - | - | - |
| 1778252367 | 15.56° C | 36% | 978 hPa | 0 mm | - | - | - |
| 1778252066 | 15.56° C | 38% | 977.7 hPa | 0 mm | - | - | - |
| 1778251765 | 15° C | 36% | 977.8 hPa | 0 mm | - | - | - |
| 1778251464 | 15.56° C | 36% | 978 hPa | 0 mm | - | - | - |
| 1778251163 | 15.56° C | 35% | 977.9 hPa | 0 mm | - | - | - |
| 1778250862 | 15° C | 37% | 978.1 hPa | 0 mm | - | - | - |
| 1778250562 | 15° C | 38% | 978.1 hPa | 0 mm | - | - | - |
| 1778250261 | 15° C | 37% | 978 hPa | 0 mm | - | - | - |
| 1778249960 | 15° C | 37% | 977.9 hPa | 0 mm | - | - | - |
| 1778249659 | 14.44° C | 40% | 978 hPa | 0 mm | - | - | - |
| 1778249359 | 13.33° C | 39% | 977.9 hPa | 0 mm | - | - | - |
| 1778249058 | 13.33° C | 37% | 978 hPa | 0 mm | - | - | - |
| 1778248757 | 13.33° C | 39% | 978 hPa | 0 mm | - | - | - |
| 1778248456 | 12.78° C | 41% | 978 hPa | 0 mm | - | - | - |
| 1778248155 | 12.22° C | 50% | 978.2 hPa | 0 mm | - | - | - |
| 1778247854 | 11.11° C | 55% | 978 hPa | 0 mm | - | - | - |
| 1778247553 | 10° C | 55% | 978.1 hPa | 0 mm | - | - | - |
| 1778247252 | 10° C | 53% | 978.2 hPa | 0 mm | - | - | - |
| 1778246952 | 8.89° C | 55% | 978.2 hPa | 0 mm | - | - | - |
| 1778246651 | 8.33° C | 60% | 978.2 hPa | 0 mm | - | - | - |
| 1778246350 | 7.22° C | 64% | 978.3 hPa | 0 mm | - | - | - |
* Rain latest hour (hover to see other rain measurements)
** Current wind speed in m/s (hover to see current wind gust speed)